Location: Bremen
(53.0793°N, 8.8017°E)
Time: 07:43:31
(UTC+01:00)

Explorer 7 - Pass Details

Date: 07 December 2021
Orbit: 483 x 674 km, 50.3° (Epoch: 16 January)

Event Time Altitude Azimuth Distance (km) Brightness Sun altitude
Rises 09:45:31 0° 278° (W) 2,711 9.9 7.5°
Reaches altitude 10° 09:47:58 10° 268° (W) 1,783 9.1 7.7°
Maximum altitude 09:51:33 31° 205° (SSW) 910 8.4 8.0°
Drops below altitude 10° 09:54:59 10° 142° (SE) 1,699 12.4 8.3°
Sets 09:57:16 0° 132° (SE) 2,561 12.0 8.5°
